Bei Facebook empfehlenBei Twitter postenGoogle plusPinterest

Das Wetter im Erzgebirge am 22.03.2015

Wetter und Klima am 22.03.2015 Holzhau im Erzgebirge (630m ü.NN)
Letzte gemessene Temperatur und Uhrzeit der Messung23:45:00 Uhr-6.70 °C
Temperatur (Maximum / Höchstwert) und Uhrzeit der Messung00:00:00 Uhr1.20 °C
Temperatur (Minimum / Tiefstwert) und Uhrzeit der Messung23:45:00-6.70 °C
Errechneter Absolutwert der Temperaturschwankungen zwischen Tmin und Tmax des Tages7.90 K
Errechnete Tagesmitteltemperatur-1.72708 °C
Gesamt - Niederschlag des Tages (in flüssiger Form)0.52 Liter / m²
Luftdruck (Maximum / Höchstwert) und Zeitpunkt der Messung11:45:00 Uhr1021.30 hPa
Luftdruck (Minimum / Tiefstwert) und Zeitpunkt der Messung00:00:00 Uhr1014.10 hPa
Errechneter Absolutwert der Luftdruckschwankungen des Tages7.20 hPa
Höchste gemessene Windgeschwindigkeit und Uhrzeit der Messung11:30:00 Uhr4.68 km/h
Errechnete Windhäufigkeit in Relation zu den Messwerten des Tages6.25000 %
Niedrigste Windkühle (Windchill) und Zeitpunkt der Messung23:45:00 Uhr-6.70 °C
Taupunkt (Maximum / Höchstwert) und Uhrzeit der Messung00:00:00 Uhr-0.40 °C
Taupunkt (Minimum / Tiefstwert) und Uhrzeit der Messung23:45:00-8.40 °C
Anzahl der automatisch eingelesenen Messwerte 96

Detaillierte Wetter- und Klima- Messwerte für den 22.03.2015 in Holzhau im Erzgebirge (630m ü.NN)
ZeitTemperaturLuftdruckRel. LuftfeuchteWindWindrichtungWindchillTaupunktNiederschlag l/m²
23:45:00-6.70 °C1019.00 hPa89.00 %-8.40 °C0.52
23:30:00-6.70 °C1019.10 hPa89.00 %-8.40 °C0.52
23:15:00-6.60 °C1019.30 hPa89.00 %-8.30 °C0.52
23:00:00-6.40 °C1019.60 hPa89.00 %-8.10 °C0.52
22:45:00-6.40 °C1019.70 hPa89.00 %-8.10 °C0.52
22:30:00-6.20 °C1019.70 hPa89.00 %-7.90 °C0.52
22:15:00-6.40 °C1019.80 hPa89.00 %-8.10 °C0.52
22:00:00-6.20 °C1020.00 hPa88.00 %-8.10 °C0.52
21:45:00-5.90 °C1020.20 hPa89.00 %-7.60 °C0.52
21:30:00-5.50 °C1019.80 hPa89.00 %-7.20 °C0.52
21:15:00-5.60 °C1019.80 hPa89.00 %-7.30 °C0.52
21:00:00-5.40 °C1020.10 hPa89.00 %-7.10 °C0.52
20:45:00-5.20 °C1020.00 hPa88.00 %-7.10 °C0.52
20:30:00-5.30 °C1020.00 hPa88.00 %-7.20 °C0.52
20:15:00-5.10 °C1020.20 hPa88.00 %-7.00 °C0.52
20:00:00-5.00 °C1020.00 hPa88.00 %-6.90 °C0.52
19:45:00-4.80 °C1020.00 hPa87.00 %-6.80 °C0.52
19:30:00-4.50 °C1020.10 hPa87.00 %-6.60 °C0.52
19:15:00-4.20 °C1019.90 hPa86.00 %-6.40 °C0.52
19:00:00-3.80 °C1020.10 hPa86.00 %-6.00 °C0.52
18:45:00-3.10 °C1019.80 hPa85.00 %-5.50 °C0.52
18:30:00-2.50 °C1019.80 hPa84.00 %-5.10 °C0.52
18:15:00-1.80 °C1020.00 hPa84.00 %-4.40 °C0.52
18:00:00-1.20 °C1020.20 hPa84.00 %-3.80 °C0.52
17:45:00-0.90 °C1020.30 hPa84.00 %-3.50 °C0.52
17:30:00-0.90 °C1020.30 hPa85.00 %-3.40 °C0.52
17:15:00-1.10 °C1020.40 hPa84.00 %-3.70 °C0.52
17:00:00-1.00 °C1020.70 hPa84.00 %-3.60 °C0.52
16:45:00-0.90 °C1020.90 hPa85.00 %-3.40 °C0.52
16:30:00-0.90 °C1020.80 hPa85.00 %-3.40 °C0.52
16:15:00-0.90 °C1021.00 hPa85.00 %-3.40 °C0.52
16:00:00-1.00 °C1021.10 hPa85.00 %-3.50 °C0.52
15:45:00-1.00 °C1021.00 hPa85.00 %-3.50 °C0.52
15:30:00-0.90 °C1021.00 hPa85.00 %-3.40 °C0.52
15:15:00-0.80 °C1021.10 hPa86.00 %-3.10 °C0.52
15:00:00-0.70 °C1021.00 hPa86.00 %-3.00 °C0.52
14:45:00-0.70 °C1021.00 hPa86.00 %-3.00 °C0.52
14:30:00-0.70 °C1021.10 hPa87.00 %-2.80 °C0.52
14:15:00-0.90 °C1021.00 hPa87.00 %-3.00 °C0.52
14:00:00-0.90 °C1021.00 hPa87.00 %-3.00 °C0.52
13:45:00-0.80 °C1021.20 hPa88.00 %-2.70 °C0.52
13:30:00-0.90 °C1021.10 hPa88.00 %-2.80 °C0.52
13:15:00-1.10 °C1021.20 hPa87.00 %-3.20 °C0.52
13:00:00-0.70 °C1021.20 hPa87.00 %-2.80 °C0.52
12:45:00-0.60 °C1021.20 hPa88.00 %-2.50 °C0.52
12:30:00-0.50 °C1021.10 hPa88.00 %-2.40 °C0.52
12:15:00-0.50 °C1021.20 hPa88.00 %-2.40 °C0.52
12:00:00-0.70 °C1021.00 hPa88.00 %-2.60 °C0.52
11:45:00-0.90 °C1021.30 hPa88.00 %-2.80 °C0.52
11:30:00-0.70 °C1021.20 hPa89.00 %4.68 km/hONO-0.70 °C-2.50 °C0.52
11:15:00-0.60 °C1020.80 hPa90.00 %-2.20 °C0.52
11:00:00-0.90 °C1020.80 hPa91.00 %-2.30 °C0.52
10:45:00-1.10 °C1020.90 hPa91.00 %-2.50 °C0.52
10:30:00-1.30 °C1020.70 hPa91.00 %-2.70 °C0.52
10:15:00-1.60 °C1021.00 hPa92.00 %-2.90 °C0.52
10:00:00-1.80 °C1020.80 hPa92.00 %-3.10 °C0.52
09:45:00-1.90 °C1020.60 hPa92.00 %-3.20 °C0.52
09:30:00-2.10 °C1020.50 hPa92.00 %-3.40 °C0.52
09:15:00-1.90 °C1020.50 hPa92.00 %-3.20 °C0.52
09:00:00-1.80 °C1020.30 hPa92.00 %-3.10 °C0.52
08:45:00-1.80 °C1020.20 hPa92.00 %-3.10 °C0.52
08:30:00-1.80 °C1020.00 hPa92.00 %-3.10 °C0.52
08:15:00-1.80 °C1019.80 hPa91.00 %-3.20 °C0.52
08:00:00-1.80 °C1019.60 hPa92.00 %3.96 km/hONO-1.80 °C-3.10 °C0.52
07:45:00-1.70 °C1019.40 hPa91.00 %-3.10 °C0.52
07:30:00-1.70 °C1019.10 hPa91.00 %-3.10 °C0.52
07:15:00-1.60 °C1019.10 hPa91.00 %-3.00 °C0.52
07:00:00-1.50 °C1018.80 hPa91.00 %-2.90 °C0.52
06:45:00-1.30 °C1018.70 hPa91.00 %3.24 km/hONO-1.30 °C-2.70 °C0.52
06:30:00-1.10 °C1018.30 hPa91.00 %-2.50 °C0.52
06:15:00-0.90 °C1018.20 hPa92.00 %-2.20 °C0.52
06:00:00-0.70 °C1017.90 hPa91.00 %-2.10 °C0.52
05:45:00-0.60 °C1017.50 hPa91.00 %-2.00 °C0.52
05:30:00-0.40 °C1017.20 hPa91.00 %-1.80 °C0.52
05:15:00-0.20 °C1017.20 hPa91.00 %-1.60 °C0.52
05:00:00-0.10 °C1016.70 hPa91.00 %-1.50 °C0.52
04:45:000.00 °C1016.60 hPa91.00 %-1.40 °C0.52
04:30:000.10 °C1016.70 hPa91.00 %-1.20 °C0.52
04:15:000.20 °C1016.50 hPa91.00 %-1.10 °C0.52
04:00:000.30 °C1016.40 hPa91.00 %-1.00 °C0.52
03:45:000.30 °C1016.10 hPa91.00 %-1.00 °C 
03:30:000.40 °C1015.90 hPa91.00 %-0.90 °C 
03:15:000.40 °C1015.70 hPa91.00 %-0.90 °C 
03:00:000.40 °C1015.80 hPa91.00 %-0.90 °C 
02:45:000.40 °C1015.70 hPa91.00 %-0.90 °C 
02:30:000.40 °C1015.30 hPa91.00 %-0.90 °C 
02:15:000.40 °C1015.30 hPa90.00 %3.24 km/hOSO0.40 °C-1.00 °C 
02:00:000.50 °C1015.10 hPa90.00 %3.96 km/hS0.50 °C-0.90 °C 
01:45:000.50 °C1015.00 hPa90.00 %-0.90 °C 
01:30:000.60 °C1014.90 hPa90.00 %2.16 km/hSW0.60 °C-0.80 °C 
01:15:000.60 °C1014.80 hPa90.00 %-0.80 °C 
01:00:000.70 °C1014.70 hPa90.00 %-0.70 °C 
00:45:000.80 °C1014.60 hPa89.00 %-0.80 °C 
00:30:001.00 °C1014.50 hPa89.00 %-0.60 °C 
00:15:001.10 °C1014.40 hPa89.00 %-0.50 °C 
00:00:001.20 °C1014.10 hPa89.00 %-0.40 °C 

Permanenter Link zu dieser Seite: Wetter im Erzgebirge am 22.03.2015
Performance-Info: Die Erstellung der Seite / Statistik(en) / Tabelle(n) erforderte 5 Datenbankserver-Abfrage(n) und dauerte 103 Millisekunden. (Dieser Messwert ist von der Gesamt-Auslastung des Servers abhängig.)
Erzgebirge - Wetter | Erzgebirge - Wetter (Mobilgeräte) | Komplette Klimadatenbank